Weather History for Halifax, NS

Change the Weather History Date:

Saturday, March 9, 2013

  Actual Average Record
Temperature  
Mean Temperature 32 °F -  
Max Temperature 38 °F 40 °F 55 °F (2008)
Min Temperature 26 °F 24 °F -5 °F (2007)
Degree Days  
Heating Degree Days 33    
Moisture  
Dew Point 25 °F    
Average Humidity 77    
Maximum Humidity 93    
Minimum Humidity 53    
Precipitation  
Precipitation 0.00 in 0.16 in - ()
Sea Level Pressure  
Sea Level Pressure 30.22 in    
Wind  
Wind Speed 14 mph ()    
Max Wind Speed 20 mph    
Max Gust Speed 30 mph    
Visibility 15.0 miles    
Events      
Averages and records for this station are not official NWS values.
T = Trace of Precipitation, MM = Missing Value Source: Averaged Metar Reports

Daily Weather History Graph

Daily Weather History Graph

Search for Another Location

Airport:

Trip Planner

Search our weather history database for the weather conditions in past years. The results will help you decide how hot, cold, wet, or windy it might be!

Date:

Astronomy

Mar. 09, 2013 Rise Set
Actual Time 6:37 AM AST 6:12 PM AST
Civil Twilight 6:07 AM AST 6:41 PM AST
Nautical Twilight 5:34 AM AST 7:15 PM AST
Astronomical Twilight 4:59 AM AST 7:50 PM AST
Moon 5:03 AM AST (3/9) 4:06 PM AST (3/9)
Length of Visible Light 12h 33m
Length of Day
11h 35m
Waning Crescent, 6% of the Moon is Illuminated
Mar 9
Waning Crescent
Mar 11
New
Mar 19
First Quarter
Mar 27
Full
Apr 3
Last Quarter

Hourly Weather History & Observations

Time (AST) Temp. Windchill Dew Point Humidity Pressure Visibility Wind Dir Wind Speed Gust Speed Precip Events Conditions
12:00 AM 28.4 °F 15.8 °F 23.0 °F 80% 30.15 in 15.0 mi NNE 18.4 mph 27.6 mph N/A   Overcast
1:00 AM 26.6 °F 13.4 °F 24.8 °F 93% 30.15 in 15.0 mi NNE 18.4 mph 27.6 mph N/A   Overcast
2:00 AM 28 °F - 23 °F 76% 30.15 in 15 mi NE 17.3 mph - -   Overcast
2:00 AM 26.6 °F 13.8 °F 23.0 °F 86% 30.15 in 15.0 mi NNE 17.3 mph 29.9 mph N/A   Overcast
3:00 AM 26.6 °F 15.2 °F 23.0 °F 86% 30.15 in 15.0 mi NE 13.8 mph 25.3 mph N/A   Overcast
4:00 AM 26.6 °F 14.7 °F 23.0 °F 86% 30.15 in 15.0 mi NE 15.0 mph 23.0 mph N/A   Overcast
5:00 AM 26.6 °F 13.8 °F 23.0 °F 86% 30.16 in 15.0 mi NNE 17.3 mph 24.2 mph N/A   Overcast
6:00 AM 28.4 °F 16.2 °F 24.8 °F 86% 30.17 in 15.0 mi NE 17.3 mph 23.0 mph N/A   Overcast
7:00 AM 28.4 °F 17.0 °F 24.8 °F 86% 30.18 in 15.0 mi NE 15.0 mph 24.2 mph N/A   Overcast
8:00 AM 29 °F - 25 °F 78% 30.19 in 15 mi NE 12.7 mph - -   Overcast
8:00 AM 28.4 °F 18.0 °F 24.8 °F 86% 30.19 in 15.0 mi NE 12.7 mph 19.6 mph N/A   Overcast
9:00 AM 30.2 °F 18.9 °F 24.8 °F 80% 30.21 in 15.0 mi NE 16.1 mph 21.9 mph N/A   Overcast
10:00 AM 32.0 °F 20.1 °F 24.8 °F 75% 30.22 in 15.0 mi NNE 19.6 mph - N/A   Overcast
11:00 AM 33.8 °F 23.2 °F 26.6 °F 75% 30.22 in 15.0 mi NNE 17.3 mph 25.3 mph N/A   Overcast
12:00 PM 35.6 °F 25.2 °F 24.8 °F 65% 30.23 in 15.0 mi NE 18.4 mph 26.5 mph N/A   Mostly Cloudy
1:00 PM 37.4 °F 29.3 °F 26.6 °F 65% 30.23 in 15.0 mi NE 12.7 mph 23.0 mph N/A   Mostly Cloudy
2:00 PM 37 °F - 26 °F 53% 30.23 in 15 mi NE 15.0 mph - -   Scattered Clouds
2:00 PM 37.4 °F 28.5 °F 26.6 °F 65% 30.23 in 15.0 mi NNE 15.0 mph - N/A   Mostly Cloudy
3:00 PM 37.4 °F 27.8 °F 26.6 °F 65% 30.23 in 15.0 mi NNE 17.3 mph 24.2 mph N/A   Mostly Cloudy
4:00 PM 37.4 °F 28.9 °F 26.6 °F 65% 30.25 in 15.0 mi NE 13.8 mph 20.7 mph N/A   Mostly Cloudy
5:00 PM 35.6 °F 27.1 °F 28.4 °F 75% 30.26 in 15.0 mi NNE 12.7 mph - N/A   Mostly Cloudy
6:00 PM 33.8 °F 23.9 °F 26.6 °F 75% 30.28 in 15.0 mi NNE 15.0 mph - N/A   Overcast
7:00 PM 32.0 °F 24.2 °F 28.4 °F 87% 30.30 in 15.0 mi NNE 9.2 mph - N/A   Overcast
8:00 PM 32 °F - 27 °F 73% 30.31 in 15 mi NE 10.4 mph - -   Overcast
8:00 PM 32.0 °F 23.0 °F 26.6 °F 80% 30.31 in 15.0 mi NE 11.5 mph - N/A   Overcast
9:00 PM 32.0 °F 23.6 °F 26.6 °F 80% 30.32 in 15.0 mi NNE 10.4 mph - N/A   Overcast
10:00 PM 32.0 °F 23.6 °F 26.6 °F 80% 30.32 in 15.0 mi NE 10.4 mph - N/A   Overcast
11:00 PM 30.2 °F 20.8 °F 24.8 °F 80% 30.33 in 15.0 mi NE 11.5 mph - N/A   Overcast